StarCraft 板


台灣時間: 06/18 17:00  戰績表: http://wiki.teamliquid.net/starcraft2/2016_Proleague/Round_3 轉播網址: http://www.twitch.tv/sc2proleague (英) http://www.azubu.tv/EN_SC2_Proleague (英) https://www.youtube.com/watch?v=JFm3VyMJR9Y (韓)
http://www.azubu.tv/KR_SC2_Proleague (韓) http://www.douyutv.com/scboy (Du) 賽事資訊: http://wiki.teamliquid.net/starcraft2/2016_Proleague VOD: http://tinyurl.com/hvsc46j https://www.youtube.com/channel/UC9Bh8GeuDVfjMRet_KAwA0A 17:00 KT Rolster 3-0 Samsung Galaxy Game1: TY(T)Dear(P) @ Frost Game2: Zest(P)Reality(T) @ Dusk Towers Game3: Trust(P)BrAvO(T) @ King Sejong Station Game4: Stats(P) vs Solar(Z) @ New Gettysburg ACE: TBD vs TBD @ Frozen Temple 18:30 Jin Air Green Wings 3-0 MVP Game1: Maru(T) Blaze(P) @ Dusk Towers Game2: sOs(P) Seed(P) @ Frozen Temple Game3: Cure(T)GuMiho(T) @ Frost Game4: Trap(P) vs DeParture(Z) @ Overgrowth ACE: TBD vs TBD @ New Gettysburg Round 3 Standings Players Standings Maru 12-1 +11│Super 6-8 -2 Jin 2-0 6-1 -1 herO 12-5 +7│RagnaroK 3-7 -4 KT 2-0 6-2 +2 Zest 12-5 +6│ByuL 6-7 -1 Samsung 1-1 3-4 +1 Stats 10-3 +7│GuMoho 8-7 -1 Afreeca 1-1 4-5 -1 Dear 10-6 +7│Dark 9-7 +2 ---------------------------------- soO 9-2 +3│DeParture 4-6 +2 SKT1 1-0 2-3 -1 TY 10-6 +3│TY 9-6 +3 CJ 0-1 2-3 -1 Dark 9-7 +2│Hush 0-5 -5 MVP 0-2 1-6 -5 GuMiho 8-7 +1│Bunny 2-5 -3 Rogue 7-4 +3│aLive 3-5 -2 -- 地圖移除 : Lerilak Crest , Orbital Shipyard 地圖新增 : Frozen Temple , New Gettysburg 作者 JokerRF (RF) 看板 StarCraft 標題 [聯賽] 2016 SPL R2 KT:Samsung Jin:MVP 時間 Sat Jun 18 15:24:55 2016 ─────────────────────────────────────── 只有兩Z 還不一定上的了場 --



※ 發信站: 批踢踢實業坊(ptt.cc), 來自: 140.120.24.52
※ 文章網址: https://webptt.com/m.aspx?n=bbs/StarCraft/M.1466234699.A.8E6.html ※ 編輯: JokerRF (140.120.24.52), 06/18/2016 15:25:22
1F:推 cluclu: 今天 精彩 06/18 15:26
2F:推 chase0140: 各種TvP,看看到底誰IMBA!! 06/18 15:31
3F:推 franchy: TP爭霸 06/18 15:33
4F:推 howard6110: KT P多已經贏了 綠翼MVP 2比2勝負難料 06/18 15:35
5F:推 CharcoalMoon: KT P多贏 MVP 有Z輸 06/18 15:52
6F:推 hyk32166: 這動作有點快XD 馬上打好 06/18 16:06
7F:推 alan129: 大衛金 黑暗期開啟者 何時輪到P 06/18 16:06
8F:推 qoo74119: 都不太敢讓蟲上。 06/18 16:18
9F:推 bkst147: SKT偷拿一勝XD 06/18 16:28
10F:推 franchy: 親本加油啊 上面遊戲也太多人看好TY 06/18 17:04
11F:推 Anidream: artosis SPL! 06/18 17:05
12F:推 hardyuse: 兩分半三基地 偷起來 06/18 17:12
13F:→ hardyuse: 神族4分3開 人族開局佔了優勢 06/18 17:14
14F:推 franchy: 第一場就要打大後期的感覺 06/18 17:14
15F:推 Anidream: valdes 和 artosis之間沒有化學反應.... 06/18 17:15
16F:推 Coshower: (P)layers Standings 06/18 17:20
17F:→ hardyuse: TY要衝了 06/18 17:20
18F:推 ace0824: 太陽大送兵 06/18 17:20
19F:推 franchy: 親本要掛了 06/18 17:22
20F:推 Anidream: 剛怎麼一把閃電都沒有? 06/18 17:23
21F:推 ace0824: 親本為啥衝行星要塞 06/18 17:23
22F:推 wyiwyi: 奶的有來有回阿.... 06/18 17:23
23F:→ hardyuse: 仁義親本 06/18 17:23
24F:→ Anidream: 他有三把電啊 都電出來頂著PF 也能打的 06/18 17:24
25F:推 kgbrts: 幹嘛沒事丟核彈 06/18 17:26
26F:推 franchy: 這兩個人 不應該出現這種菜雞互啄的戲碼阿?? 06/18 17:27
27F:→ hardyuse: 狂奶TY 不要啊 06/18 17:28
28F:推 wyiwyi: 越賭越好了 06/18 17:28
29F:推 Anidream: 還在出巨像.... 人空軍就可以幹死你了 06/18 17:28
30F:推 TFsonG: 巨像真的爛 06/18 17:31
31F:→ kgb1019: 移動中被捉到開戰 06/18 17:31
32F:推 tasin: 幹嘛出這種垃圾阿 不懂 06/18 17:31
33F:→ TFsonG: 親本想打正面 部隊協同還不夠好 06/18 17:32
34F:→ hardyuse: TY一坨維京 巨象表示我想縮起來 06/18 17:33
35F:推 chase0140: TY大後期的鬼子解放維京操作一點都不急,真是穩.... 06/18 17:34
36F:推 a34781261: 星際貨幣:日料 火鍋 羊腿 雞宮堡 06/18 17:34
37F:推 Anidream: 要看對手有什麼 維京解放鬼子 還出什麼巨像, 還有使徒.. 06/18 17:39
38F:噓 TFsonG: Pimba 06/18 17:41
39F:→ TFsonG: 我爽三開 你苦防守 真是平衡 06/18 17:41
40F:推 alan129: protossed 06/18 17:43
41F:推 Anidream: 太慘了.... 06/18 17:45
42F:推 ace0824: 實力差距太大 06/18 17:45
43F:推 com214111: 從裡被打到外 好慘QQ 06/18 17:46
44F:推 dogdog1227: ZEST這無法交流阿 把T吃的死死的 06/18 17:46
45F:推 neojames: 內憂外患,T盤小菜 06/18 17:46
46F:→ hardyuse: 聽到解說就笑了 早就說PvT imba 還一堆人堅持解放IMBA 06/18 17:47
47F:推 TFsonG: Zest該贏沒錯 但種族優勢有多大太明顯了 06/18 17:47
48F:噓 allen196522: 盲俠打星海 我也是醉了 不偵查被動開局 06/18 17:48
49F:→ TFsonG: 單方面的騷擾和防守比賽怎麼會好看 06/18 17:48
50F:推 cluclu: P: Timba 無解者無解者無解者 超無解的不管啦Timba 06/18 17:50
51F:推 hc1118: http://aligulac.com/misc/balance/ 06/18 17:50
52F:推 skynotlimit: P 防守只要下水晶 T要防的可多的了 野在哪多好偵查? 06/18 17:50
53F:推 elvis222: bravo7:0什麼情況 06/18 17:54
54F:→ lovinlover: 7色毒奶 06/18 17:54
55F:→ hardyuse: P騷擾手段那麼多 你防閃追有先知 防先知有隱刀 06/18 17:54
56F:推 Anidream: aligulac 包括線上賽和非韓 06/18 17:54
57F:→ hardyuse: 還有水晶快攻跟靈車飄移 問你怎麼防(菸 06/18 17:54
58F:推 CharcoalMoon: 本來就沒很強了還被七色毒奶... 06/18 17:54
59F:推 hc1118: 平衡還要分那麼多喔 那要不要分一線韓國 二線韓國 06/18 17:56
60F:→ hardyuse: 隱刀來要被砍成馬了 06/18 18:00
61F:推 elvis222: 操作空間大xdddd 06/18 18:00
62F:推 b8944042: 哈哈 稜鏡操作空間很大的呀 06/18 18:00
63F:推 kgbrts: 專業解說看得全是歪的XD 06/18 18:00
64F:→ elvis222: 這... 06/18 18:00
65F:推 hc1118: 炮哥這反映..... 06/18 18:00
66F:推 com214111: 那隻DT砍太爽了 06/18 18:01
67F:推 ace0824: 砲哥......死了 06/18 18:01
68F:推 nbgfdew: bravo是掛機嗎 這反應也慢的太扯= = 06/18 18:01
69F:→ hardyuse: 一隻隱刀砍14農 笑了 06/18 18:01
70F:推 RaRaYA: 兩個瞎子.... 06/18 18:01
71F:推 CharcoalMoon: 連續三發瞬發毒奶 XDDDDD 06/18 18:01
72F:→ elvis222: 菜雞互啄 06/18 18:01
73F:→ ace0824: 這兩隻雞.... 06/18 18:01
74F:推 LUOZISHANG: 瞎子爭霸.... 06/18 18:02
75F:推 TFsonG: 到底在打啥 06/18 18:02
76F:推 neojames: 地雷:欺負我飛彈飛得慢。菱鏡: 06/18 18:04
77F:推 elvis222: 3:0 solar上不了場 06/18 18:05
78F:推 com214111: 好慘~ 06/18 18:05
79F:推 TFsonG: No....好想看G4 三星真的太不爭氣了 06/18 18:06
80F:→ hardyuse: GG3:0 06/18 18:07
81F:推 qqq87112: MVP:trust 06/18 18:08
82F:推 Anidream: @hc1118 當然要分啊 06/18 18:08
83F:推 Anidream: trust 你也想五勝 真是 i have a dream 06/18 18:12
84F:→ hardyuse: 輸給神族就對了 是誰就算了(X 06/18 18:29
85F:推 CharcoalMoon: 毒奶給的賠率跟TF大的一樣XD 06/18 18:31
86F:→ hardyuse: 是說seed有這麼差嗎 跟狗哥賠率差這麼多 06/18 18:32
87F:推 TFsonG: Maru再輸我就崩潰了 06/18 18:32
88F:推 hardyuse: 還好 Maru人口領先 06/18 18:34
89F:推 Anidream: man blaze 的apm 好強啊 操作不錯 06/18 18:35
90F:→ hardyuse: 我靠 馬路行不行啊!! 06/18 18:37
91F:推 TFsonG: Maru小失誤好多 打得不夠乾淨俐落 06/18 18:37
92F:推 Anidream: 但是腦子呃.... 06/18 18:37
93F:推 com214111: 還好沒事XD 06/18 18:37
94F:推 jesusk: 差點被打死啊.... 06/18 18:37
95F:→ TFsonG: 今天應該一堆人可以領P幣了 恭喜 等一下sOs也是關鍵 06/18 18:38
96F:推 amos9520: 這有機會吧 放棄得好快 06/18 18:38
97F:推 ilove5072: 對P不行呀,一波追壓制又有三礦,怎麼打 06/18 18:38
98F:→ TFsonG: 剛剛小強稜鏡沒用上 用上馬路就死了 06/18 18:38
99F:→ com214111: 稜鏡在那掛超久的 06/18 18:39
100F:→ jesusk: 差被賭盤又崩崩 狗哥加油啊!! 06/18 18:39
101F:推 hardyuse: 被騷成這樣反撲還這麼兇猛 雖然blaze也不弱就是 06/18 18:39
102F:→ TFsonG: 如果剛剛換Zest打 馬路可能被壓倒性跳死 06/18 18:40
103F:推 TFsonG: 今天七色毒奶CD好久 06/18 18:42
104F:推 Anidream: 難講 剛maru 全是光頭啊 06/18 18:44
105F:推 TFsonG: Seed好爛啊 06/18 18:49
106F:推 Anidream: 被sos騙了 他以為sos野了 06/18 18:50
107F:推 qqq87112: 水神都不在家蓋地堡 06/18 18:52
108F:→ Anidream: sos 的部隊亂走..... 先是兩個燒餅'然後兩追獵 06/18 18:52
109F:推 TFsonG: Seed可以跳了吧 06/18 18:52
110F:推 donod: 工兵領先、科技領先、人口領先,要怎麼輸? 06/18 18:52
111F:推 peterwu4: 不愧是狗哥XD 06/18 18:53
112F:推 GianniC: Seed有夠差 被狗哥打到失智 06/18 18:53
113F:→ Anidream: 就智商壓倒啊. 開始seed以為sos野東西了. 追獵留家裏 06/18 18:53
114F:→ Anidream: ob也沒飛出去. 等seed在sos家門前轉了一圈搞清楚之後 06/18 18:54
115F:→ donod: 再用一隻不朽誘敵,破壞陣行 06/18 18:54
116F:→ hardyuse: 不朽&球爸爸 06/18 18:54
117F:→ Anidream: 不知道sos 家裏已經下了dark shire 了.... 06/18 18:55
118F:推 GianniC: 被教士換農就已經虧很多了 還被隱刀砍到重傷 06/18 18:56
119F:推 LUOZISHANG: SOS:輕鬆寫意 06/18 18:56
120F:推 elvis222: 互黑xdd 06/18 18:57
121F:推 peterwu4: 要寫個慘字啊 06/18 19:07
122F:推 elvis222: 又一場3:0 06/18 19:09
123F:推 ace0824: 兩個3:0,真無聊 06/18 19:10
124F:→ Anidream: artosis 表示他們是故意的! 06/18 19:10
125F:推 neojames: 急著吃晚餐的節奏 06/18 19:10
126F:推 com214111: 真的~沒什麼激情XD 06/18 19:10
127F:推 a34781261: 哪裡有好吃的外賣呢 06/18 19:10
128F:推 elvis222: 91又在騙 06/18 19:15
※ 編輯: JokerRF (220.133.162.192), 06/18/2016 21:30:36
129F:→ ghostturtle: 好神 真的Z沒上場 06/19 12:48







like.gif 您可能會有興趣的文章
icon.png[問題/行為] 貓晚上進房間會不會有憋尿問題
icon.pngRe: [閒聊] 選了錯誤的女孩成為魔法少女 XDDDDDDDDDD
icon.png[正妹] 瑞典 一張
icon.png[心得] EMS高領長版毛衣.墨小樓MC1002
icon.png[分享] 丹龍隔熱紙GE55+33+22
icon.png[問題] 清洗洗衣機
icon.png[尋物] 窗台下的空間
icon.png[閒聊] 双極の女神1 木魔爵
icon.png[售車] 新竹 1997 march 1297cc 白色 四門
icon.png[討論] 能從照片感受到攝影者心情嗎
icon.png[狂賀] 賀賀賀賀 賀!島村卯月!總選舉NO.1
icon.png[難過] 羨慕白皮膚的女生
icon.png閱讀文章
icon.png[黑特]
icon.png[問題] SBK S1安裝於安全帽位置
icon.png[分享] 舊woo100絕版開箱!!
icon.pngRe: [無言] 關於小包衛生紙
icon.png[開箱] E5-2683V3 RX480Strix 快睿C1 簡單測試
icon.png[心得] 蒼の海賊龍 地獄 執行者16PT
icon.png[售車] 1999年Virage iO 1.8EXi
icon.png[心得] 挑戰33 LV10 獅子座pt solo
icon.png[閒聊] 手把手教你不被桶之新手主購教學
icon.png[分享] Civic Type R 量產版官方照無預警流出
icon.png[售車] Golf 4 2.0 銀色 自排
icon.png[出售] Graco提籃汽座(有底座)2000元誠可議
icon.png[問題] 請問補牙材質掉了還能再補嗎?(台中半年內
icon.png[問題] 44th 單曲 生寫竟然都給重複的啊啊!
icon.png[心得] 華南紅卡/icash 核卡
icon.png[問題] 拔牙矯正這樣正常嗎
icon.png[贈送] 老莫高業 初業 102年版
icon.png[情報] 三大行動支付 本季掀戰火
icon.png[寶寶] 博客來Amos水蠟筆5/1特價五折
icon.pngRe: [心得] 新鮮人一些面試分享
icon.png[心得] 蒼の海賊龍 地獄 麒麟25PT
icon.pngRe: [閒聊] (君の名は。雷慎入) 君名二創漫畫翻譯
icon.pngRe: [閒聊] OGN中場影片:失蹤人口局 (英文字幕)
icon.png[問題] 台灣大哥大4G訊號差
icon.png[出售] [全國]全新千尋侘草LED燈, 水草
伺服器連線錯誤,造成您的不便還請多多包涵!
「贊助商連結」






like.gif 您可能會有興趣的文章
icon.png[問題/行為] 貓晚上進房間會不會有憋尿問題
icon.pngRe: [閒聊] 選了錯誤的女孩成為魔法少女 XDDDDDDDDDD
icon.png[正妹] 瑞典 一張
icon.png[心得] EMS高領長版毛衣.墨小樓MC1002
icon.png[分享] 丹龍隔熱紙GE55+33+22
icon.png[問題] 清洗洗衣機
icon.png[尋物] 窗台下的空間
icon.png[閒聊] 双極の女神1 木魔爵
icon.png[售車] 新竹 1997 march 1297cc 白色 四門
icon.png[討論] 能從照片感受到攝影者心情嗎
icon.png[狂賀] 賀賀賀賀 賀!島村卯月!總選舉NO.1
icon.png[難過] 羨慕白皮膚的女生
icon.png閱讀文章
icon.png[黑特]
icon.png[問題] SBK S1安裝於安全帽位置
icon.png[分享] 舊woo100絕版開箱!!
icon.pngRe: [無言] 關於小包衛生紙
icon.png[開箱] E5-2683V3 RX480Strix 快睿C1 簡單測試
icon.png[心得] 蒼の海賊龍 地獄 執行者16PT
icon.png[售車] 1999年Virage iO 1.8EXi
icon.png[心得] 挑戰33 LV10 獅子座pt solo
icon.png[閒聊] 手把手教你不被桶之新手主購教學
icon.png[分享] Civic Type R 量產版官方照無預警流出
icon.png[售車] Golf 4 2.0 銀色 自排
icon.png[出售] Graco提籃汽座(有底座)2000元誠可議
icon.png[問題] 請問補牙材質掉了還能再補嗎?(台中半年內
icon.png[問題] 44th 單曲 生寫竟然都給重複的啊啊!
icon.png[心得] 華南紅卡/icash 核卡
icon.png[問題] 拔牙矯正這樣正常嗎
icon.png[贈送] 老莫高業 初業 102年版
icon.png[情報] 三大行動支付 本季掀戰火
icon.png[寶寶] 博客來Amos水蠟筆5/1特價五折
icon.pngRe: [心得] 新鮮人一些面試分享
icon.png[心得] 蒼の海賊龍 地獄 麒麟25PT
icon.pngRe: [閒聊] (君の名は。雷慎入) 君名二創漫畫翻譯
icon.pngRe: [閒聊] OGN中場影片:失蹤人口局 (英文字幕)
icon.png[問題] 台灣大哥大4G訊號差
icon.png[出售] [全國]全新千尋侘草LED燈, 水草

請輸入看板名稱,例如:Tech_Job站內搜尋

TOP